Regional Weather Roundup
Issued by NWS

Home | Current Version | Previous Version | Text Only | Print | Product List | Glossary On
Versions: 1 2 3 4 5 6 7 8 9 10 11 12 13 14 15 16 17 18 19 20 21 22 23 24 25 26 27 28 29 30 31 32 33 34 35 36 37 38 39 40 41 42 43 44 45 46 47 48 49 50
000
ASUS43 KLSX 202257
RWRMO

WEATHER SUMMARY FOR MISSOURI
NATIONAL WEATHER SERVICE SPRINGFIELD MO
500 PM CST MON NOV 20 2017

NOTE: "FAIR" INDICATES FEW OR NO CLOUDS BELOW 12,000 FEET WITH NO
       SIGNIFICANT WEATHER AND/OR OBSTRUCTIONS TO VISIBILITY.
       CURRENT SKY AND/OR WEATHER CONDITIONS ARE NOT AVAILABLE FOR
       CHILLICOTHE AND FARMINGTON.

MOZ001>031-035>038-043-044-053-054-210000-
...NORTHERN AND WESTERN MISSOURI...

CITY           SKY/WX    TMP DP  RH WIND       PRES   REMARKS
KANSAS CTY INT CLOUDY    58  28  32 S21G33    29.74S
LEE`S SUMMIT   CLEAR     57  28  33 SW17G25   29.77F
ST JOSEPH      CLOUDY    58  29  33 S16       29.70R
CHILLICOTHE      N/A     58  30  34 S14       29.74S

$$
MOZ066>068-077>081-088>096-101>105-210000-
...SOUTHWEST MISSOURI...

CITY           SKY/WX    TMP DP  RH WIND       PRES   REMARKS
SPRINGFIELD    CLEAR     55  27  34 S14       29.88F
JOPLIN         CLEAR     56  29  35 S10G22    29.88F
BRANSON        PTCLDY    55  27  33 S7        29.94F

$$
MOZ032>034-039>042-045>050-055>058-069>072-210000-
...CENTRAL MISSOURI...

CITY           SKY/WX    TMP DP  RH WIND       PRES   REMARKS
COLUMBIA       NOT AVBL
JEFFERSON CITY CLEAR     60  27  28 S9        29.83F
ROLLA          CLEAR     53  26  35 S13G23    29.87F
SEDALIA        CLEAR     57  30  35 SW17      29.82S
WARRENSBURG    CLEAR     55  28  35 S15G23    29.80S

$$
MOZ051-052-059>065-210000-
...EAST CENTRAL MISSOURI...

CITY           SKY/WX    TMP DP  RH WIND       PRES   REMARKS
ST LOUIS INTL  PTCLDY    56  25  30 S12       29.88F

$$
MOZ072>076-082>087-097>100-106>115-210000-
...SOUTH CENTRAL AND SOUTHEAST MISSOURI...

CITY           SKY/WX    TMP DP  RH WIND       PRES   REMARKS
CAPE GIRARDEAU CLEAR     46  32  58 S10       30.03F
POPLAR BLUFF   CLEAR     50  30  46 S10       30.02F
WEST PLAINS    CLEAR     53  25  33 S9        29.96F

$$


USA.gov is the U.S. government's official web portal to all federal, state and local government web resources and services.